owner,sensor,date,latitude,longitude,vertical_datum,sea_water_practical_salinity,qcFlag 
DISL,ioos:station:DISL:MBLA:1,2010-10-01T00:02:00Z,30.4367,-88.0117,3.013,17.19,1111122 
DISL,ioos:station:DISL:MBLA:1,2010-10-01T00:05:00Z,30.4367,-88.0117,2.503,17.21,1111122 
DISL,ioos:station:DISL:MBLA:1,2010-10-01T00:07:00Z,30.4367,-88.0117,1.996,16.71,1111122 
DISL,ioos:station:DISL:MBLA:1,2010-10-01T00:10:00Z,30.4367,-88.0117,1.488,16.57,1111122 
DISL,ioos:station:DISL:MBLA:1,2010-10-01T00:12:00Z,30.4367,-88.0117,0.963,16.38,1111122 
DISL,ioos:station:DISL:MBLA:1,2010-10-01T00:15:00Z,30.4367,-88.0117,0.529,16.28,1111122 
DISL,ioos:station:DISL:MBLA:1,2010-10-01T00:30:00Z,30.4367,-88.0117,1.0,16.4,11111222 
DISL,ioos:station:DISL:MBLA:1,2010-10-01T01:02:00Z,30.4367,-88.0117,2.95,17.15,1111122 
DISL,ioos:station:DISL:MBLA:1,2010-10-01T01:05:00Z,30.4367,-88.0117,2.512,17.11,1111122 
DISL,ioos:station:DISL:MBLA:1,2010-10-01T01:07:00Z,30.4367,-88.0117,2.013,16.87,1111122 
DISL,ioos:station:DISL:MBLA:1,2010-10-01T01:10:00Z,30.4367,-88.0117,1.515,16.6,1111122 
DISL,ioos:station:DISL:MBLA:1,2010-10-01T01:12:00Z,30.4367,-88.0117,0.996,16.51,1111122 
DISL,ioos:station:DISL:MBLA:1,2010-10-01T01:14:00Z,30.4367,-88.0117,0.463,16.47,1111122 
DISL,ioos:station:DISL:MBLA:1,2010-10-01T01:30:00Z,30.4367,-88.0117,1.0,16.5,11111222 
DISL,ioos:station:DISL:MBLA:1,2010-10-01T02:02:00Z,30.4367,-88.0117,2.991,17.55,1111122 
DISL,ioos:station:DISL:MBLA:1,2010-10-01T02:05:00Z,30.4367,-88.0117,2.496,16.66,1111122 
DISL,ioos:station:DISL:MBLA:1,2010-10-01T02:07:00Z,30.4367,-88.0117,1.995,16.58,1111122 
DISL,ioos:station:DISL:MBLA:1,2010-10-01T02:10:00Z,30.4367,-88.0117,1.499,16.51,1111122 
DISL,ioos:station:DISL:MBLA:1,2010-10-01T02:12:00Z,30.4367,-88.0117,0.973,16.42,1111122 
DISL,ioos:station:DISL:MBLA:1,2010-10-01T02:14:00Z,30.4367,-88.0117,0.446,16.38,1111122 
DISL,ioos:station:DISL:MBLA:1,2010-10-01T02:30:00Z,30.4367,-88.0117,1.0,16.4,11111222 
DISL,ioos:station:DISL:MBLA:1,2010-10-01T03:02:00Z,30.4367,-88.0117,2.968,17.87,1111122 
DISL,ioos:station:DISL:MBLA:1,2010-10-01T03:05:00Z,30.4367,-88.0117,2.477,17.09,1111122 
DISL,ioos:station:DISL:MBLA:1,2010-10-01T03:07:00Z,30.4367,-88.0117,1.991,16.62,1111122 
DISL,ioos:station:DISL:MBLA:1,2010-10-01T03:10:00Z,30.4367,-88.0117,1.505,16.53,1111122 
DISL,ioos:station:DISL:MBLA:1,2010-10-01T03:12:00Z,30.4367,-88.0117,0.948,16.35,1111122 
DISL,ioos:station:DISL:MBLA:1,2010-10-01T03:14:00Z,30.4367,-88.0117,0.491,16.26,1111122 
DISL,ioos:station:DISL:MBLA:1,2010-10-01T03:30:00Z,30.4367,-88.0117,1.0,16.4,11111222 
DISL,ioos:station:DISL:MBLA:1,2010-10-01T04:02:00Z,30.4367,-88.0117,2.977,17.19,1111122 
DISL,ioos:station:DISL:MBLA:1,2010-10-01T04:05:00Z,30.4367,-88.0117,2.485,17.2,1111122 
DISL,ioos:station:DISL:MBLA:1,2010-10-01T04:07:00Z,30.4367,-88.0117,1.997,16.75,1111122 
DISL,ioos:station:DISL:MBLA:1,2010-10-01T04:10:00Z,30.4367,-88.0117,1.512,16.46,1111122 
DISL,ioos:station:DISL:MBLA:1,2010-10-01T04:12:00Z,30.4367,-88.0117,0.98,16.12,1111122 
DISL,ioos:station:DISL:MBLA:1,2010-10-01T04:14:00Z,30.4367,-88.0117,0.446,16.05,1111122 
DISL,ioos:station:DISL:MBLA:1,2010-10-01T04:30:00Z,30.4367,-88.0117,1.0,16.1,11111222 
DISL,ioos:station:DISL:MBLA:1,2010-10-01T05:02:00Z,30.4367,-88.0117,2.943,18.68,1111122 
DISL,ioos:station:DISL:MBLA:1,2010-10-01T05:05:00Z,30.4367,-88.0117,2.514,18.25,1111122 
DISL,ioos:station:DISL:MBLA:1,2010-10-01T05:07:00Z,30.4367,-88.0117,2.031,17.3,1111122 
DISL,ioos:station:DISL:MBLA:1,2010-10-01T05:10:00Z,30.4367,-88.0117,1.535,16.7,1111122 
DISL,ioos:station:DISL:MBLA:1,2010-10-01T05:12:00Z,30.4367,-88.0117,1.011,16.19,1111122 
DISL,ioos:station:DISL:MBLA:1,2010-10-01T05:14:00Z,30.4367,-88.0117,0.472,16.04,1111122 
DISL,ioos:station:DISL:MBLA:1,2010-10-01T05:30:00Z,30.4367,-88.0117,1.0,16.2,11111222 
DISL,ioos:station:DISL:MBLA:1,2010-10-01T06:02:00Z,30.4367,-88.0117,2.961,18.85,1111122 
DISL,ioos:station:DISL:MBLA:1,2010-10-01T06:05:00Z,30.4367,-88.0117,2.536,18.22,1111122 
DISL,ioos:station:DISL:MBLA:1,2010-10-01T06:07:00Z,30.4367,-88.0117,2.046,17.26,1111122 
DISL,ioos:station:DISL:MBLA:1,2010-10-01T06:10:00Z,30.4367,-88.0117,1.501,16.67,1111122 
DISL,ioos:station:DISL:MBLA:1,2010-10-01T06:12:00Z,30.4367,-88.0117,0.974,16.19,1111122 
DISL,ioos:station:DISL:MBLA:1,2010-10-01T06:14:00Z,30.4367,-88.0117,0.45,15.96,1111122 
DISL,ioos:station:DISL:MBLA:1,2010-10-01T06:30:00Z,30.4367,-88.0117,1.0,16.2,11111222 
DISL,ioos:station:DISL:MBLA:1,2010-10-01T07:02:00Z,30.4367,-88.0117,2.992,19.21,1111122 
DISL,ioos:station:DISL:MBLA:1,2010-10-01T07:05:00Z,30.4367,-88.0117,2.504,19.04,1111122 
DISL,ioos:station:DISL:MBLA:1,2010-10-01T07:07:00Z,30.4367,-88.0117,2.016,18.15,1111122 
DISL,ioos:station:DISL:MBLA:1,2010-10-01T07:10:00Z,30.4367,-88.0117,1.524,17.02,1111122 
DISL,ioos:station:DISL:MBLA:1,2010-10-01T07:12:00Z,30.4367,-88.0117,1.007,16.33,1111122 
DISL,ioos:station:DISL:MBLA:1,2010-10-01T07:15:00Z,30.4367,-88.0117,0.577,16.03,1111122 
DISL,ioos:station:DISL:MBLA:1,2010-10-01T07:30:00Z,30.4367,-88.0117,1.0,16.3,11111222 
DISL,ioos:station:DISL:MBLA:1,2010-10-01T08:02:00Z,30.4367,-88.0117,2.992,19.23,1111122 
DISL,ioos:station:DISL:MBLA:1,2010-10-01T08:05:00Z,30.4367,-88.0117,2.495,18.69,1111122 
DISL,ioos:station:DISL:MBLA:1,2010-10-01T08:07:00Z,30.4367,-88.0117,2.005,18.12,1111122 
DISL,ioos:station:DISL:MBLA:1,2010-10-01T08:10:00Z,30.4367,-88.0117,1.52,17.19,1111122 
DISL,ioos:station:DISL:MBLA:1,2010-10-01T08:12:00Z,30.4367,-88.0117,0.997,16.43,1111122 
DISL,ioos:station:DISL:MBLA:1,2010-10-01T08:14:00Z,30.4367,-88.0117,0.488,16.15,1111122 
DISL,ioos:station:DISL:MBLA:1,2010-10-01T08:30:00Z,30.4367,-88.0117,1.0,16.4,11111222 
DISL,ioos:station:DISL:MBLA:1,2010-10-01T09:02:00Z,30.4367,-88.0117,2.963,18.8,1111122 
DISL,ioos:station:DISL:MBLA:1,2010-10-01T09:05:00Z,30.4367,-88.0117,2.475,18.44,1111122 
DISL,ioos:station:DISL:MBLA:1,2010-10-01T09:07:00Z,30.4367,-88.0117,2.057,17.92,1111122 
DISL,ioos:station:DISL:MBLA:1,2010-10-01T09:10:00Z,30.4367,-88.0117,1.502,17.23,1111122 
DISL,ioos:station:DISL:MBLA:1,2010-10-01T09:12:00Z,30.4367,-88.0117,0.979,16.42,1111122 
DISL,ioos:station:DISL:MBLA:1,2010-10-01T09:14:00Z,30.4367,-88.0117,0.472,16.18,1111122 
DISL,ioos:station:DISL:MBLA:1,2010-10-01T09:30:00Z,30.4367,-88.0117,1.0,16.4,11111222 
DISL,ioos:station:DISL:MBLA:1,2010-10-01T10:02:00Z,30.4367,-88.0117,2.999,18.85,1111122 
DISL,ioos:station:DISL:MBLA:1,2010-10-01T10:05:00Z,30.4367,-88.0117,2.513,18.59,1111122 
DISL,ioos:station:DISL:MBLA:1,2010-10-01T10:07:00Z,30.4367,-88.0117,2.037,18.13,1111122 
DISL,ioos:station:DISL:MBLA:1,2010-10-01T10:10:00Z,30.4367,-88.0117,1.483,17.86,1111122 
DISL,ioos:station:DISL:MBLA:1,2010-10-01T10:12:00Z,30.4367,-88.0117,0.957,16.8,1111122 
DISL,ioos:station:DISL:MBLA:1,2010-10-01T10:15:00Z,30.4367,-88.0117,0.625,16.6,1111122 
DISL,ioos:station:DISL:MBLA:1,2010-10-01T10:30:00Z,30.4367,-88.0117,1.0,16.8,11111222 
DISL,ioos:station:DISL:MBLA:1,2010-10-01T11:02:00Z,30.4367,-88.0117,2.999,18.62,1111122 
DISL,ioos:station:DISL:MBLA:1,2010-10-01T11:05:00Z,30.4367,-88.0117,2.518,18.13,1111122 
DISL,ioos:station:DISL:MBLA:1,2010-10-01T11:07:00Z,30.4367,-88.0117,2.09,17.95,1111122 
DISL,ioos:station:DISL:MBLA:1,2010-10-01T11:10:00Z,30.4367,-88.0117,1.551,17.17,1111122 
DISL,ioos:station:DISL:MBLA:1,2010-10-01T11:12:00Z,30.4367,-88.0117,0.974,16.83,1111122 
DISL,ioos:station:DISL:MBLA:1,2010-10-01T11:14:00Z,30.4367,-88.0117,0.368,16.75,1111122 
DISL,ioos:station:DISL:MBLA:1,2010-10-01T11:30:00Z,30.4367,-88.0117,1.0,16.8,11111222 
DISL,ioos:station:DISL:MBLA:1,2010-10-01T12:02:00Z,30.4367,-88.0117,2.935,18.12,1111122 
DISL,ioos:station:DISL:MBLA:1,2010-10-01T12:05:00Z,30.4367,-88.0117,2.452,18.18,1111122 
DISL,ioos:station:DISL:MBLA:1,2010-10-01T12:07:00Z,30.4367,-88.0117,2.142,17.75,1111122 
DISL,ioos:station:DISL:MBLA:1,2010-10-01T12:10:00Z,30.4367,-88.0117,1.46,17.49,1111122 
DISL,ioos:station:DISL:MBLA:1,2010-10-01T12:13:00Z,30.4367,-88.0117,0.971,17.42,1111122 
DISL,ioos:station:DISL:MBLA:1,2010-10-01T12:16:00Z,30.4367,-88.0117,0.416,17.3,1111122 
DISL,ioos:station:DISL:MBLA:1,2010-10-01T12:30:00Z,30.4367,-88.0117,1.0,17.4,11111222 
DISL,ioos:station:DISL:MBLA:1,2010-10-01T13:02:00Z,30.4367,-88.0117,2.873,18.3,1111122 
DISL,ioos:station:DISL:MBLA:1,2010-10-01T13:05:00Z,30.4367,-88.0117,2.443,18.12,1111122 
DISL,ioos:station:DISL:MBLA:1,2010-10-01T13:07:00Z,30.4367,-88.0117,2.011,18.11,1111122 
DISL,ioos:station:DISL:MBLA:1,2010-10-01T13:10:00Z,30.4367,-88.0117,1.58,18.03,1111122 
DISL,ioos:station:DISL:MBLA:1,2010-10-01T13:13:00Z,30.4367,-88.0117,0.899,18.08,1111122 
DISL,ioos:station:DISL:MBLA:1,2010-10-01T13:15:00Z,30.4367,-88.0117,0.465,18.1,1111122 
DISL,ioos:station:DISL:MBLA:1,2010-10-01T13:30:00Z,30.4367,-88.0117,1.0,18.1,11111222 
DISL,ioos:station:DISL:MBLA:1,2010-10-01T14:03:00Z,30.4367,-88.0117,2.955,17.92,1111122 
DISL,ioos:station:DISL:MBLA:1,2010-10-01T14:06:00Z,30.4367,-88.0117,2.314,18.0,1111122 
DISL,ioos:station:DISL:MBLA:1,2010-10-01T14:08:00Z,30.4367,-88.0117,2.017,17.61,1111122 
DISL,ioos:station:DISL:MBLA:1,2010-10-01T14:10:00Z,30.4367,-88.0117,1.597,17.47,1111122 
DISL,ioos:station:DISL:MBLA:1,2010-10-01T14:13:00Z,30.4367,-88.0117,0.951,17.29,1111122 
DISL,ioos:station:DISL:MBLA:1,2010-10-01T14:15:00Z,30.4367,-88.0117,0.333,17.31,1111122 
DISL,ioos:station:DISL:MBLA:1,2010-10-01T14:30:00Z,30.4367,-88.0117,1.0,17.3,11111222 
DISL,ioos:station:DISL:MBLA:1,2010-10-01T15:02:00Z,30.4367,-88.0117,3.019,17.55,1111122 
DISL,ioos:station:DISL:MBLA:1,2010-10-01T15:05:00Z,30.4367,-88.0117,2.495,17.28,1111122 
DISL,ioos:station:DISL:MBLA:1,2010-10-01T15:07:00Z,30.4367,-88.0117,1.936,17.26,1111122 
DISL,ioos:station:DISL:MBLA:1,2010-10-01T15:10:00Z,30.4367,-88.0117,1.447,17.23,1111122 
DISL,ioos:station:DISL:MBLA:1,2010-10-01T15:12:00Z,30.4367,-88.0117,0.975,17.17,1111122 
DISL,ioos:station:DISL:MBLA:1,2010-10-01T15:14:00Z,30.4367,-88.0117,0.545,17.05,1111122 
DISL,ioos:station:DISL:MBLA:1,2010-10-01T15:30:00Z,30.4367,-88.0117,1.0,17.2,11111222 
DISL,ioos:station:DISL:MBLA:1,2010-10-01T16:02:00Z,30.4367,-88.0117,3.018,17.31,1111122 
DISL,ioos:station:DISL:MBLA:1,2010-10-01T16:05:00Z,30.4367,-88.0117,2.473,17.27,1111122 
DISL,ioos:station:DISL:MBLA:1,2010-10-01T16:07:00Z,30.4367,-88.0117,1.915,17.1,1111122 
DISL,ioos:station:DISL:MBLA:1,2010-10-01T16:10:00Z,30.4367,-88.0117,1.435,16.92,1111122 
DISL,ioos:station:DISL:MBLA:1,2010-10-01T16:12:00Z,30.4367,-88.0117,0.937,16.81,1111122 
DISL,ioos:station:DISL:MBLA:1,2010-10-01T16:15:00Z,30.4367,-88.0117,0.59,16.68,1111122 
DISL,ioos:station:DISL:MBLA:1,2010-10-01T16:30:00Z,30.4367,-88.0117,1.0,16.8,11111222 
DISL,ioos:station:DISL:MBLA:1,2010-10-01T17:02:00Z,30.4367,-88.0117,3.017,17.44,1111122 
DISL,ioos:station:DISL:MBLA:1,2010-10-01T17:05:00Z,30.4367,-88.0117,2.479,17.4,1111122 
DISL,ioos:station:DISL:MBLA:1,2010-10-01T17:07:00Z,30.4367,-88.0117,1.87,16.61,1111122 
DISL,ioos:station:DISL:MBLA:1,2010-10-01T17:10:00Z,30.4367,-88.0117,1.452,16.47,1111122 
DISL,ioos:station:DISL:MBLA:1,2010-10-01T17:12:00Z,30.4367,-88.0117,1.035,16.33,1111122 
DISL,ioos:station:DISL:MBLA:1,2010-10-01T17:14:00Z,30.4367,-88.0117,0.526,16.18,1111122 
DISL,ioos:station:DISL:MBLA:1,2010-10-01T17:30:00Z,30.4367,-88.0117,1.0,16.3,11111222 
DISL,ioos:station:DISL:MBLA:1,2010-10-01T18:02:00Z,30.4367,-88.0117,2.962,17.71,1111122 
DISL,ioos:station:DISL:MBLA:1,2010-10-01T18:05:00Z,30.4367,-88.0117,2.421,17.7,1111122 
DISL,ioos:station:DISL:MBLA:1,2010-10-01T18:07:00Z,30.4367,-88.0117,1.947,17.16,1111122 
DISL,ioos:station:DISL:MBLA:1,2010-10-01T18:10:00Z,30.4367,-88.0117,1.462,16.72,1111122 
DISL,ioos:station:DISL:MBLA:1,2010-10-01T18:12:00Z,30.4367,-88.0117,0.963,16.61,1111122 
DISL,ioos:station:DISL:MBLA:1,2010-10-01T18:15:00Z,30.4367,-88.0117,0.542,16.15,1111122 
DISL,ioos:station:DISL:MBLA:1,2010-10-01T18:30:00Z,30.4367,-88.0117,1.0,16.6,11111222 
DISL,ioos:station:DISL:MBLA:1,2010-10-01T19:03:00Z,30.4367,-88.0117,3.166,17.35,1111122 
DISL,ioos:station:DISL:MBLA:1,2010-10-01T19:05:00Z,30.4367,-88.0117,2.478,17.31,1111122 
DISL,ioos:station:DISL:MBLA:1,2010-10-01T19:08:00Z,30.4367,-88.0117,1.921,17.19,1111122 
DISL,ioos:station:DISL:MBLA:1,2010-10-01T19:10:00Z,30.4367,-88.0117,1.439,16.55,1111122 
DISL,ioos:station:DISL:MBLA:1,2010-10-01T19:12:00Z,30.4367,-88.0117,0.949,16.47,1111122 
DISL,ioos:station:DISL:MBLA:1,2010-10-01T19:15:00Z,30.4367,-88.0117,0.442,15.86,1111122 
DISL,ioos:station:DISL:MBLA:1,2010-10-01T19:30:00Z,30.4367,-88.0117,1.0,16.5,11111222 
DISL,ioos:station:DISL:MBLA:1,2010-10-01T20:02:00Z,30.4367,-88.0117,2.981,17.44,1111122 
DISL,ioos:station:DISL:MBLA:1,2010-10-01T20:05:00Z,30.4367,-88.0117,2.441,17.49,1111122 
DISL,ioos:station:DISL:MBLA:1,2010-10-01T20:07:00Z,30.4367,-88.0117,1.956,17.44,1111122 
DISL,ioos:station:DISL:MBLA:1,2010-10-01T20:10:00Z,30.4367,-88.0117,1.476,17.24,1111122 
DISL,ioos:station:DISL:MBLA:1,2010-10-01T20:12:00Z,30.4367,-88.0117,0.852,16.22,1111122 
DISL,ioos:station:DISL:MBLA:1,2010-10-01T20:14:00Z,30.4367,-88.0117,0.408,15.79,1111122 
DISL,ioos:station:DISL:MBLA:1,2010-10-01T20:30:00Z,30.4367,-88.0117,1.0,16.2,11111222 
DISL,ioos:station:DISL:MBLA:1,2010-10-01T21:02:00Z,30.4367,-88.0117,3.023,17.44,1111122 
DISL,ioos:station:DISL:MBLA:1,2010-10-01T21:05:00Z,30.4367,-88.0117,2.483,17.64,1111122 
DISL,ioos:station:DISL:MBLA:1,2010-10-01T21:07:00Z,30.4367,-88.0117,1.986,16.93,1111122 
DISL,ioos:station:DISL:MBLA:1,2010-10-01T21:10:00Z,30.4367,-88.0117,1.448,16.7,1111122 
DISL,ioos:station:DISL:MBLA:1,2010-10-01T21:12:00Z,30.4367,-88.0117,0.975,16.11,1111122 
DISL,ioos:station:DISL:MBLA:1,2010-10-01T21:15:00Z,30.4367,-88.0117,0.553,15.89,1111122 
DISL,ioos:station:DISL:MBLA:1,2010-10-01T21:30:00Z,30.4367,-88.0117,1.0,16.1,11111222 
DISL,ioos:station:DISL:MBLA:1,2010-10-01T22:02:00Z,30.4367,-88.0117,3.029,17.18,1111122 
DISL,ioos:station:DISL:MBLA:1,2010-10-01T22:05:00Z,30.4367,-88.0117,2.422,17.13,1111122 
DISL,ioos:station:DISL:MBLA:1,2010-10-01T22:07:00Z,30.4367,-88.0117,1.953,16.87,1111122 
DISL,ioos:station:DISL:MBLA:1,2010-10-01T22:10:00Z,30.4367,-88.0117,1.471,16.7,1111122 
DISL,ioos:station:DISL:MBLA:1,2010-10-01T22:12:00Z,30.4367,-88.0117,1.076,16.35,1111122 
DISL,ioos:station:DISL:MBLA:1,2010-10-01T22:15:00Z,30.4367,-88.0117,0.438,16.06,1111122 
DISL,ioos:station:DISL:MBLA:1,2010-10-01T22:30:00Z,30.4367,-88.0117,1.0,16.4,11111222 
DISL,ioos:station:DISL:MBLA:1,2010-10-01T23:02:00Z,30.4367,-88.0117,3.034,18.69,1111122 
DISL,ioos:station:DISL:MBLA:1,2010-10-01T23:05:00Z,30.4367,-88.0117,2.42,18.21,1111122 
DISL,ioos:station:DISL:MBLA:1,2010-10-01T23:07:00Z,30.4367,-88.0117,1.94,17.72,1111122 
DISL,ioos:station:DISL:MBLA:1,2010-10-01T23:10:00Z,30.4367,-88.0117,1.466,17.2,1111122 
DISL,ioos:station:DISL:MBLA:1,2010-10-01T23:12:00Z,30.4367,-88.0117,0.918,16.43,1111122 
DISL,ioos:station:DISL:MBLA:1,2010-10-01T23:14:00Z,30.4367,-88.0117,0.428,15.92,1111122 
DISL,ioos:station:DISL:MBLA:1,2010-10-01T23:30:00Z,30.4367,-88.0117,1.0,16.4,11111222 
DISL,ioos:station:DISL:MBLA:1,2010-10-02T00:02:00Z,30.4367,-88.0117,2.958,17.46,1111122 
DISL,ioos:station:DISL:MBLA:1,2010-10-02T00:05:00Z,30.4367,-88.0117,2.52,17.68,1111122 
DISL,ioos:station:DISL:MBLA:1,2010-10-02T00:07:00Z,30.4367,-88.0117,2.006,17.42,1111122 
DISL,ioos:station:DISL:MBLA:1,2010-10-02T00:10:00Z,30.4367,-88.0117,1.438,16.54,1111122 
DISL,ioos:station:DISL:MBLA:1,2010-10-02T00:12:00Z,30.4367,-88.0117,0.987,16.31,1111122 
DISL,ioos:station:DISL:MBLA:1,2010-10-02T00:14:00Z,30.4367,-88.0117,0.447,15.89,1111122 
DISL,ioos:station:DISL:MBLA:1,2010-10-02T00:30:00Z,30.4367,-88.0117,1.0,16.3,11111222 
DISL,ioos:station:DISL:MBLA:1,2010-10-02T01:02:00Z,30.4367,-88.0117,2.984,18.16,1111122 
DISL,ioos:station:DISL:MBLA:1,2010-10-02T01:05:00Z,30.4367,-88.0117,2.482,18.27,1111122 
DISL,ioos:station:DISL:MBLA:1,2010-10-02T01:07:00Z,30.4367,-88.0117,1.982,18.11,1111122 
DISL,ioos:station:DISL:MBLA:1,2010-10-02T01:10:00Z,30.4367,-88.0117,1.482,17.48,1111122 
DISL,ioos:station:DISL:MBLA:1,2010-10-02T01:12:00Z,30.4367,-88.0117,0.973,16.73,1111122 
DISL,ioos:station:DISL:MBLA:1,2010-10-02T01:14:00Z,30.4367,-88.0117,0.491,16.09,1111122 
DISL,ioos:station:DISL:MBLA:1,2010-10-02T01:30:00Z,30.4367,-88.0117,1.0,16.7,11111222 
DISL,ioos:station:DISL:MBLA:1,2010-10-02T02:02:00Z,30.4367,-88.0117,2.956,18.13,1111122 
DISL,ioos:station:DISL:MBLA:1,2010-10-02T02:05:00Z,30.4367,-88.0117,2.465,18.01,1111122 
DISL,ioos:station:DISL:MBLA:1,2010-10-02T02:07:00Z,30.4367,-88.0117,1.993,17.39,1111122 
DISL,ioos:station:DISL:MBLA:1,2010-10-02T02:10:00Z,30.4367,-88.0117,1.535,16.88,1111122 
DISL,ioos:station:DISL:MBLA:1,2010-10-02T02:13:00Z,30.4367,-88.0117,1.064,16.5,1111122 
DISL,ioos:station:DISL:MBLA:1,2010-10-02T02:15:00Z,30.4367,-88.0117,0.526,16.34,1111122 
DISL,ioos:station:DISL:MBLA:1,2010-10-02T02:30:00Z,30.4367,-88.0117,1.0,16.5,11111222 
DISL,ioos:station:DISL:MBLA:1,2010-10-02T03:02:00Z,30.4367,-88.0117,2.893,18.32,1111122 
DISL,ioos:station:DISL:MBLA:1,2010-10-02T03:05:00Z,30.4367,-88.0117,2.544,17.76,1111122 
DISL,ioos:station:DISL:MBLA:1,2010-10-02T03:07:00Z,30.4367,-88.0117,2.016,17.32,1111122 
DISL,ioos:station:DISL:MBLA:1,2010-10-02T03:10:00Z,30.4367,-88.0117,1.545,16.97,1111122 
DISL,ioos:station:DISL:MBLA:1,2010-10-02T03:12:00Z,30.4367,-88.0117,0.917,16.74,1111122 
DISL,ioos:station:DISL:MBLA:1,2010-10-02T03:14:00Z,30.4367,-88.0117,0.391,16.64,1111122 
DISL,ioos:station:DISL:MBLA:1,2010-10-02T03:30:00Z,30.4367,-88.0117,1.0,16.7,11111222 
DISL,ioos:station:DISL:MBLA:1,2010-10-02T04:02:00Z,30.4367,-88.0117,2.866,18.05,1111122 
DISL,ioos:station:DISL:MBLA:1,2010-10-02T04:05:00Z,30.4367,-88.0117,2.495,17.56,1111122 
DISL,ioos:station:DISL:MBLA:1,2010-10-02T04:07:00Z,30.4367,-88.0117,2.006,17.32,1111122 
DISL,ioos:station:DISL:MBLA:1,2010-10-02T04:10:00Z,30.4367,-88.0117,1.456,17.17,1111122 
DISL,ioos:station:DISL:MBLA:1,2010-10-02T04:12:00Z,30.4367,-88.0117,1.079,17.09,1111122 
DISL,ioos:station:DISL:MBLA:1,2010-10-02T04:14:00Z,30.4367,-88.0117,0.525,17.09,1111122 
DISL,ioos:station:DISL:MBLA:1,2010-10-02T04:30:00Z,30.4367,-88.0117,1.0,17.1,11111222 
DISL,ioos:station:DISL:MBLA:1,2010-10-02T05:02:00Z,30.4367,-88.0117,2.981,18.14,1111122 
DISL,ioos:station:DISL:MBLA:1,2010-10-02T05:05:00Z,30.4367,-88.0117,2.468,17.75,1111122 
DISL,ioos:station:DISL:MBLA:1,2010-10-02T05:07:00Z,30.4367,-88.0117,2.038,17.34,1111122 
DISL,ioos:station:DISL:MBLA:1,2010-10-02T05:10:00Z,30.4367,-88.0117,1.508,17.13,1111122 
DISL,ioos:station:DISL:MBLA:1,2010-10-02T05:12:00Z,30.4367,-88.0117,1.003,17.06,1111122 
DISL,ioos:station:DISL:MBLA:1,2010-10-02T05:15:00Z,30.4367,-88.0117,0.41,17.0,1111122 
DISL,ioos:station:DISL:MBLA:1,2010-10-02T05:30:00Z,30.4367,-88.0117,1.0,17.1,11111222 
DISL,ioos:station:DISL:MBLA:1,2010-10-02T06:02:00Z,30.4367,-88.0117,2.947,17.94,1111122 
DISL,ioos:station:DISL:MBLA:1,2010-10-02T06:05:00Z,30.4367,-88.0117,2.478,17.61,1111122 
DISL,ioos:station:DISL:MBLA:1,2010-10-02T06:07:00Z,30.4367,-88.0117,1.812,17.4,1111122 
DISL,ioos:station:DISL:MBLA:1,2010-10-02T06:10:00Z,30.4367,-88.0117,1.514,17.35,1111122 
DISL,ioos:station:DISL:MBLA:1,2010-10-02T06:12:00Z,30.4367,-88.0117,0.951,17.19,1111122 
DISL,ioos:station:DISL:MBLA:1,2010-10-02T06:14:00Z,30.4367,-88.0117,0.515,17.03,1111122 
DISL,ioos:station:DISL:MBLA:1,2010-10-02T06:30:00Z,30.4367,-88.0117,1.0,17.2,11111222 
DISL,ioos:station:DISL:MBLA:1,2010-10-02T07:02:00Z,30.4367,-88.0117,3.0,18.28,1111122 
DISL,ioos:station:DISL:MBLA:1,2010-10-02T07:05:00Z,30.4367,-88.0117,2.505,18.09,1111122 
DISL,ioos:station:DISL:MBLA:1,2010-10-02T07:07:00Z,30.4367,-88.0117,1.961,17.78,1111122 
DISL,ioos:station:DISL:MBLA:1,2010-10-02T07:10:00Z,30.4367,-88.0117,1.63,17.52,1111122 
DISL,ioos:station:DISL:MBLA:1,2010-10-02T07:12:00Z,30.4367,-88.0117,1.074,17.3,1111122 
DISL,ioos:station:DISL:MBLA:1,2010-10-02T07:14:00Z,30.4367,-88.0117,0.467,17.17,1111122 
DISL,ioos:station:DISL:MBLA:1,2010-10-02T07:30:00Z,30.4367,-88.0117,1.0,17.3,11111222 
DISL,ioos:station:DISL:MBLA:1,2010-10-02T08:03:00Z,30.4367,-88.0117,3.027,18.54,1111122 
DISL,ioos:station:DISL:MBLA:1,2010-10-02T08:05:00Z,30.4367,-88.0117,2.544,18.42,1111122 
DISL,ioos:station:DISL:MBLA:1,2010-10-02T08:07:00Z,30.4367,-88.0117,1.989,18.14,1111122 
DISL,ioos:station:DISL:MBLA:1,2010-10-02T08:10:00Z,30.4367,-88.0117,1.522,17.85,1111122 
DISL,ioos:station:DISL:MBLA:1,2010-10-02T08:12:00Z,30.4367,-88.0117,1.116,17.7,1111122 
DISL,ioos:station:DISL:MBLA:1,2010-10-02T08:15:00Z,30.4367,-88.0117,0.501,17.58,1111122 
DISL,ioos:station:DISL:MBLA:1,2010-10-02T08:30:00Z,30.4367,-88.0117,1.0,17.7,11111222 
DISL,ioos:station:DISL:MBLA:1,2010-10-02T09:02:00Z,30.4367,-88.0117,2.982,18.28,1111122 
DISL,ioos:station:DISL:MBLA:1,2010-10-02T09:05:00Z,30.4367,-88.0117,2.499,18.08,1111122 
DISL,ioos:station:DISL:MBLA:1,2010-10-02T09:07:00Z,30.4367,-88.0117,2.013,18.0,1111122 
DISL,ioos:station:DISL:MBLA:1,2010-10-02T09:10:00Z,30.4367,-88.0117,1.463,17.91,1111122 
DISL,ioos:station:DISL:MBLA:1,2010-10-02T09:12:00Z,30.4367,-88.0117,1.058,17.87,1111122 
DISL,ioos:station:DISL:MBLA:1,2010-10-02T09:15:00Z,30.4367,-88.0117,0.515,17.79,1111122 
DISL,ioos:station:DISL:MBLA:1,2010-10-02T09:30:00Z,30.4367,-88.0117,1.0,17.9,11111222 
DISL,ioos:station:DISL:MBLA:1,2010-10-02T10:02:00Z,30.4367,-88.0117,2.806,18.63,1111122 
DISL,ioos:station:DISL:MBLA:1,2010-10-02T10:05:00Z,30.4367,-88.0117,2.468,18.16,1111122 
DISL,ioos:station:DISL:MBLA:1,2010-10-02T10:07:00Z,30.4367,-88.0117,2.077,18.01,1111122 
DISL,ioos:station:DISL:MBLA:1,2010-10-02T10:10:00Z,30.4367,-88.0117,1.528,17.78,1111122 
DISL,ioos:station:DISL:MBLA:1,2010-10-02T10:12:00Z,30.4367,-88.0117,0.953,17.67,1111122 
DISL,ioos:station:DISL:MBLA:1,2010-10-02T10:15:00Z,30.4367,-88.0117,0.372,17.59,1111122 
DISL,ioos:station:DISL:MBLA:1,2010-10-02T10:30:00Z,30.4367,-88.0117,1.0,17.7,11111222 
DISL,ioos:station:DISL:MBLA:1,2010-10-02T11:02:00Z,30.4367,-88.0117,2.952,19.19,1111122 
DISL,ioos:station:DISL:MBLA:1,2010-10-02T11:05:00Z,30.4367,-88.0117,2.533,18.9,1111122 
DISL,ioos:station:DISL:MBLA:1,2010-10-02T11:07:00Z,30.4367,-88.0117,2.015,18.48,1111122 
DISL,ioos:station:DISL:MBLA:1,2010-10-02T11:10:00Z,30.4367,-88.0117,1.558,18.03,1111122 
DISL,ioos:station:DISL:MBLA:1,2010-10-02T11:12:00Z,30.4367,-88.0117,0.951,17.79,1111122 
DISL,ioos:station:DISL:MBLA:1,2010-10-02T11:14:00Z,30.4367,-88.0117,0.39,17.58,1111122 
DISL,ioos:station:DISL:MBLA:1,2010-10-02T11:30:00Z,30.4367,-88.0117,1.0,17.8,11111222 
DISL,ioos:station:DISL:MBLA:1,2010-10-02T12:02:00Z,30.4367,-88.0117,2.961,19.34,1111122 
DISL,ioos:station:DISL:MBLA:1,2010-10-02T12:05:00Z,30.4367,-88.0117,2.534,18.86,1111122 
DISL,ioos:station:DISL:MBLA:1,2010-10-02T12:07:00Z,30.4367,-88.0117,2.048,18.54,1111122 
DISL,ioos:station:DISL:MBLA:1,2010-10-02T12:10:00Z,30.4367,-88.0117,1.541,18.22,1111122 
DISL,ioos:station:DISL:MBLA:1,2010-10-02T12:12:00Z,30.4367,-88.0117,0.883,17.73,1111122 
DISL,ioos:station:DISL:MBLA:1,2010-10-02T12:15:00Z,30.4367,-88.0117,0.609,17.58,1111122 
DISL,ioos:station:DISL:MBLA:1,2010-10-02T12:30:00Z,30.4367,-88.0117,1.0,17.7,11111222 
DISL,ioos:station:DISL:MBLA:1,2010-10-02T13:02:00Z,30.4367,-88.0117,2.937,19.03,1111122 
DISL,ioos:station:DISL:MBLA:1,2010-10-02T13:05:00Z,30.4367,-88.0117,2.519,18.85,1111122 
DISL,ioos:station:DISL:MBLA:1,2010-10-02T13:07:00Z,30.4367,-88.0117,2.033,18.54,1111122 
DISL,ioos:station:DISL:MBLA:1,2010-10-02T13:10:00Z,30.4367,-88.0117,1.486,18.35,1111122 
DISL,ioos:station:DISL:MBLA:1,2010-10-02T13:12:00Z,30.4367,-88.0117,0.984,17.95,1111122 
DISL,ioos:station:DISL:MBLA:1,2010-10-02T13:15:00Z,30.4367,-88.0117,0.529,17.7,1111122 
DISL,ioos:station:DISL:MBLA:1,2010-10-02T13:30:00Z,30.4367,-88.0117,1.0,18.0,11111222 
DISL,ioos:station:DISL:MBLA:1,2010-10-02T14:02:00Z,30.4367,-88.0117,2.985,18.77,1111122 
DISL,ioos:station:DISL:MBLA:1,2010-10-02T14:05:00Z,30.4367,-88.0117,2.524,18.83,1111122 
DISL,ioos:station:DISL:MBLA:1,2010-10-02T14:08:00Z,30.4367,-88.0117,1.948,18.7,1111122 
DISL,ioos:station:DISL:MBLA:1,2010-10-02T14:10:00Z,30.4367,-88.0117,1.388,18.07,1111122 